Time,TemperatureF,DewpointF,PressureIn,WindDirection,WindDirectionDegrees,WindSpeedMPH,WindSpeedGustMPH,Humidity,HourlyPrecipIn,Conditions,Clouds,dailyrainin,SoftwareType,DateUTC
2013-03-08 00:02:00,33.0,31.0,30.05,NW,325,0.0,2.0,93,0.01,,,0.16,,2013-03-08 05:02:00,
2013-03-08 00:12:00,33.0,31.0,30.05,NW,325,0.0,2.0,93,0.01,,,0.16,,2013-03-08 05:12:00,
2013-03-08 00:22:00,33.0,31.0,30.05,North,355,0.0,3.0,93,0.01,,,0.16,,2013-03-08 05:22:00,
2013-03-08 00:33:00,33.0,31.0,30.05,NNE,33,1.0,7.0,93,0.01,,,0.16,,2013-03-08 05:33:00,
2013-03-08 00:42:00,33.0,31.0,30.05,NNE,33,1.0,7.0,93,0.01,,,0.16,,2013-03-08 05:42:00,
2013-03-08 00:52:00,33.0,31.0,30.05,NW,317,0.0,3.0,93,0.01,,,0.16,,2013-03-08 05:52:00,
2013-03-08 01:02:00,33.0,31.0,30.05,North,3,0.0,6.0,93,0.00,,,0.16,,2013-03-08 06:02:00,
2013-03-08 01:11:00,33.0,31.0,30.05,North,3,0.0,6.0,93,0.00,,,0.16,,2013-03-08 06:11:00,
2013-03-08 01:22:00,33.0,31.0,30.05,West,260,0.0,1.0,93,0.00,,,0.16,,2013-03-08 06:22:00,
2013-03-08 01:32:00,33.0,31.0,30.05,NNE,19,1.0,5.0,93,0.01,,,0.17,,2013-03-08 06:32:00,
2013-03-08 01:42:00,33.0,31.0,30.05,NNE,19,1.0,5.0,93,0.01,,,0.17,,2013-03-08 06:42:00,
2013-03-08 01:52:00,33.0,31.0,30.05,NNW,341,1.0,3.0,93,0.01,,,0.16,,2013-03-08 06:52:00,
2013-03-08 02:01:00,33.0,31.0,30.04,NNE,14,0.0,3.0,93,0.01,,,0.16,,2013-03-08 07:01:00,
2013-03-08 02:11:00,33.0,31.0,30.04,NNE,14,0.0,3.0,93,0.01,,,0.16,,2013-03-08 07:11:00,
2013-03-08 02:22:00,33.0,31.0,30.04,SW,220,1.0,5.0,92,0.01,,,0.16,,2013-03-08 07:22:00,
2013-03-08 02:32:00,33.0,31.0,30.03,WNW,290,1.0,6.0,92,0.00,,,0.16,,2013-03-08 07:32:00,
2013-03-08 02:42:00,33.0,31.0,30.03,WNW,290,1.0,6.0,92,0.00,,,0.16,,2013-03-08 07:42:00,
2013-03-08 02:51:00,33.0,31.0,30.03,NNW,338,1.0,3.0,92,0.00,,,0.16,,2013-03-08 07:51:00,
2013-03-08 03:01:00,33.0,31.0,30.02,NE,42,1.0,7.0,92,0.00,,,0.16,,2013-03-08 08:01:00,
2013-03-08 03:11:00,33.0,31.0,30.02,NE,42,1.0,7.0,92,0.00,,,0.16,,2013-03-08 08:11:00,
2013-03-08 03:22:00,33.0,31.0,30.02,NNE,31,2.0,7.0,92,0.00,,,0.16,,2013-03-08 08:22:00,
2013-03-08 03:32:00,33.0,31.0,30.01,NNE,18,1.0,3.0,92,0.00,,,0.16,,2013-03-08 08:32:00,
2013-03-08 03:42:00,33.0,31.0,30.01,NNE,18,1.0,3.0,92,0.00,,,0.16,,2013-03-08 08:42:00,
2013-03-08 03:52:00,33.0,31.0,30.01,North,8,1.0,7.0,92,0.00,,,0.16,,2013-03-08 08:52:00,
2013-03-08 04:03:00,33.0,31.0,30.00,NNW,339,3.0,7.0,92,0.00,,,0.16,,2013-03-08 09:03:00,
2013-03-08 04:11:00,33.0,31.0,30.00,NNW,339,3.0,7.0,92,0.00,,,0.16,,2013-03-08 09:11:00,
2013-03-08 04:22:00,33.0,31.0,30.00,NE,56,2.0,8.0,92,0.00,,,0.16,,2013-03-08 09:22:00,
2013-03-08 04:32:00,33.0,31.0,30.00,NNW,348,2.0,7.0,92,0.00,,,0.16,,2013-03-08 09:32:00,
2013-03-08 04:42:00,33.0,31.0,30.00,NNW,348,2.0,7.0,92,0.00,,,0.16,,2013-03-08 09:42:00,
2013-03-08 04:52:00,33.0,31.0,30.00,NE,41,2.0,7.0,92,0.00,,,0.16,,2013-03-08 09:52:00,
2013-03-08 05:01:00,33.0,31.0,30.00,North,354,2.0,8.0,92,0.00,,,0.16,,2013-03-08 10:01:00,
2013-03-08 05:11:00,33.0,31.0,30.00,North,354,2.0,8.0,92,0.00,,,0.16,,2013-03-08 10:11:00,
2013-03-08 05:21:00,33.0,31.0,30.00,North,3,1.0,7.0,92,0.00,,,0.16,,2013-03-08 10:21:00,
2013-03-08 05:32:00,32.0,30.0,30.00,NE,49,3.0,7.0,92,0.00,,,0.16,,2013-03-08 10:32:00,
2013-03-08 05:42:00,32.0,30.0,30.00,NE,49,3.0,7.0,92,0.00,,,0.16,,2013-03-08 10:42:00,
2013-03-08 05:52:00,32.0,30.0,30.00,North,4,1.0,3.0,92,0.00,,,0.16,,2013-03-08 10:52:00,
2013-03-08 06:01:00,32.0,30.0,30.00,East,83,0.0,5.0,93,0.00,,,0.16,,2013-03-08 11:01:00,
2013-03-08 06:11:00,32.0,30.0,30.00,East,83,0.0,5.0,93,0.00,,,0.16,,2013-03-08 11:11:00,
2013-03-08 06:22:00,32.0,30.0,30.00,NW,326,1.0,5.0,93,0.00,,,0.16,,2013-03-08 11:22:00,
2013-03-08 06:32:00,32.0,30.0,30.00,NNE,16,1.0,6.0,93,0.00,,,0.16,,2013-03-08 11:32:00,
2013-03-08 06:42:00,32.0,30.0,30.00,NNE,16,1.0,6.0,93,0.00,,,0.16,,2013-03-08 11:42:00,
2013-03-08 06:52:00,32.0,30.0,30.01,North,351,2.0,8.0,93,0.00,,,0.16,,2013-03-08 11:52:00,
2013-03-08 07:02:00,32.0,30.0,30.01,North,358,1.0,6.0,93,0.00,,,0.16,,2013-03-08 12:02:00,
2013-03-08 07:11:00,32.0,30.0,30.01,North,358,1.0,6.0,93,0.00,,,0.16,,2013-03-08 12:11:00,
2013-03-08 07:22:00,32.0,30.0,30.01,NW,319,1.0,3.0,93,0.01,,,0.17,,2013-03-08 12:22:00,
2013-03-08 07:32:00,32.0,30.0,30.01,NNW,343,2.0,6.0,93,0.01,,,0.17,,2013-03-08 12:32:00,
2013-03-08 07:43:00,32.0,30.0,30.01,NNW,343,2.0,6.0,93,0.01,,,0.17,,2013-03-08 12:43:00,
2013-03-08 07:52:00,32.0,30.0,30.01,NNE,17,1.0,7.0,93,0.01,,,0.17,,2013-03-08 12:52:00,
2013-03-08 08:02:00,32.0,30.0,30.01,NE,42,1.0,8.0,93,0.01,,,0.17,,2013-03-08 13:02:00,
2013-03-08 08:11:00,32.0,30.0,30.01,NE,42,1.0,8.0,93,0.01,,,0.17,,2013-03-08 13:11:00,
2013-03-08 08:22:00,32.0,30.0,30.01,NE,34,0.0,5.0,93,0.00,,,0.17,,2013-03-08 13:22:00,
2013-03-08 08:32:00,32.0,30.0,30.01,North,349,1.0,3.0,93,0.00,,,0.17,,2013-03-08 13:32:00,
2013-03-08 08:42:00,32.0,30.0,30.01,North,349,1.0,3.0,93,0.00,,,0.17,,2013-03-08 13:42:00,
2013-03-08 08:52:00,32.0,30.0,30.02,ESE,123,1.0,3.0,93,0.00,,,0.17,,2013-03-08 13:52:00,
2013-03-08 09:03:00,32.0,30.0,30.02,North,8,1.0,5.0,93,0.00,,,0.16,,2013-03-08 14:03:00,
2013-03-08 09:12:00,32.0,30.0,30.02,North,8,1.0,5.0,93,0.00,,,0.16,,2013-03-08 14:12:00,
2013-03-08 09:22:00,32.0,30.0,30.02,NNE,26,0.0,3.0,93,0.00,,,0.16,,2013-03-08 14:22:00,
2013-03-08 09:32:00,32.0,30.0,30.02,NW,305,0.0,0.0,93,0.00,,,0.16,,2013-03-08 14:32:00,
2013-03-08 09:42:00,32.0,30.0,30.02,NW,305,0.0,0.0,93,0.00,,,0.16,,2013-03-08 14:42:00,
2013-03-08 09:52:00,32.0,30.0,30.03,NNW,335,0.0,0.0,93,0.00,,,0.16,,2013-03-08 14:52:00,
2013-03-08 10:03:00,32.0,30.0,30.03,North,351,0.0,0.0,93,0.00,,,0.16,,2013-03-08 15:03:00,
2013-03-08 10:12:00,32.0,30.0,30.03,North,351,0.0,0.0,93,0.00,,,0.16,,2013-03-08 15:12:00,
2013-03-08 10:22:00,32.0,30.0,30.03,North,353,0.0,0.0,93,0.00,,,0.16,,2013-03-08 15:22:00,
2013-03-08 10:32:00,33.0,31.0,30.03,North,4,0.0,3.0,94,0.00,,,0.16,,2013-03-08 15:32:00,
2013-03-08 10:42:00,33.0,31.0,30.03,North,4,0.0,3.0,94,0.00,,,0.16,,2013-03-08 15:42:00,
2013-03-08 10:53:00,33.0,31.0,30.03,NNW,328,1.0,6.0,93,0.00,,,0.16,,2013-03-08 15:53:00,
2013-03-08 11:02:00,33.0,31.0,30.03,NE,35,2.0,8.0,93,0.00,,,0.16,,2013-03-08 16:02:00,
2013-03-08 11:11:00,33.0,31.0,30.03,NE,35,2.0,8.0,93,0.00,,,0.16,,2013-03-08 16:11:00,
2013-03-08 11:22:00,33.0,31.0,30.03,WNW,303,1.0,5.0,93,0.00,,,0.16,,2013-03-08 16:22:00,
2013-03-08 11:32:00,33.0,31.0,30.03,West,272,2.0,6.0,93,0.01,,,0.17,,2013-03-08 16:32:00,
2013-03-08 11:42:00,33.0,31.0,30.03,West,272,2.0,6.0,93,0.01,,,0.17,,2013-03-08 16:42:00,
2013-03-08 11:52:00,33.0,31.0,30.04,NNW,344,1.0,5.0,93,0.01,,,0.17,,2013-03-08 16:52:00,
2013-03-08 12:03:00,34.0,32.0,30.04,NE,50,2.0,10.0,92,0.01,,,0.17,,2013-03-08 17:03:00,
2013-03-08 12:12:00,34.0,32.0,30.04,NE,50,2.0,10.0,92,0.01,,,0.17,,2013-03-08 17:12:00,
2013-03-08 12:21:00,34.0,32.0,30.04,NW,304,1.0,5.0,92,0.01,,,0.17,,2013-03-08 17:21:00,
2013-03-08 12:32:00,34.0,32.0,30.04,West,264,1.0,7.0,92,0.01,,,0.18,,2013-03-08 17:32:00,
2013-03-08 12:42:00,34.0,32.0,30.04,West,264,1.0,7.0,92,0.01,,,0.18,,2013-03-08 17:42:00,
2013-03-08 12:52:00,34.0,32.0,30.03,North,2,1.0,3.0,92,0.01,,,0.18,,2013-03-08 17:52:00,
2013-03-08 13:02:00,34.0,32.0,30.03,NNE,18,1.0,9.0,91,0.01,,,0.18,,2013-03-08 18:02:00,
2013-03-08 13:11:00,34.0,32.0,30.03,NNE,18,1.0,9.0,91,0.01,,,0.18,,2013-03-08 18:11:00,
2013-03-08 13:22:00,34.0,32.0,30.03,West,281,2.0,7.0,91,0.02,,,0.19,,2013-03-08 18:22:00,
2013-03-08 13:32:00,34.0,32.0,30.03,North,356,2.0,8.0,91,0.01,,,0.19,,2013-03-08 18:32:00,
2013-03-08 13:42:00,34.0,32.0,30.03,North,356,2.0,8.0,91,0.01,,,0.19,,2013-03-08 18:42:00,
2013-03-08 13:52:00,34.0,32.0,30.03,North,353,2.0,10.0,91,0.02,,,0.20,,2013-03-08 18:52:00,
2013-03-08 14:01:00,35.0,33.0,30.03,NNE,13,1.0,8.0,91,0.04,,,0.22,,2013-03-08 19:01:00,
2013-03-08 14:11:00,35.0,33.0,30.03,NNE,13,1.0,8.0,91,0.04,,,0.22,,2013-03-08 19:11:00,
2013-03-08 14:22:00,35.0,33.0,30.03,NNE,25,1.0,5.0,91,0.04,,,0.23,,2013-03-08 19:22:00,
2013-03-08 14:32:00,36.0,33.0,30.03,WSW,242,2.0,6.0,90,0.05,,,0.24,,2013-03-08 19:32:00,
2013-03-08 14:42:00,36.0,33.0,30.03,WSW,242,2.0,6.0,90,0.05,,,0.24,,2013-03-08 19:42:00,
2013-03-08 14:52:00,36.0,33.0,30.03,ENE,73,2.0,8.0,89,0.05,,,0.25,,2013-03-08 19:52:00,
2013-03-08 15:01:00,37.0,33.0,30.03,North,9,3.0,9.0,86,0.06,,,0.28,,2013-03-08 20:01:00,
2013-03-08 15:11:00,37.0,33.0,30.03,North,9,3.0,9.0,86,0.06,,,0.28,,2013-03-08 20:11:00,
2013-03-08 15:22:00,37.0,33.0,30.04,NW,326,5.0,12.0,84,0.07,,,0.30,,2013-03-08 20:22:00,
2013-03-08 15:32:00,38.0,33.0,30.04,NE,41,3.0,12.0,82,0.09,,,0.33,,2013-03-08 20:32:00,
2013-03-08 15:42:00,38.0,33.0,30.04,NE,41,3.0,12.0,82,0.09,,,0.33,,2013-03-08 20:42:00,
2013-03-08 15:52:00,38.0,33.0,30.04,NNE,14,2.0,13.0,82,0.09,,,0.34,,2013-03-08 20:52:00,
2013-03-08 16:02:00,38.0,33.0,30.04,North,4,1.0,8.0,81,0.09,,,0.37,,2013-03-08 21:02:00,
2013-03-08 16:11:00,38.0,33.0,30.04,North,4,1.0,8.0,81,0.09,,,0.37,,2013-03-08 21:11:00,
2013-03-08 16:22:00,38.0,33.0,30.05,NNE,20,1.0,5.0,81,0.08,,,0.38,,2013-03-08 21:22:00,
2013-03-08 16:32:00,38.0,32.0,30.06,NNE,31,1.0,10.0,80,0.07,,,0.39,,2013-03-08 21:32:00,
2013-03-08 16:42:00,38.0,32.0,30.06,NNE,31,1.0,10.0,80,0.07,,,0.39,,2013-03-08 21:42:00,
2013-03-08 16:52:00,39.0,33.0,30.06,NNE,20,3.0,13.0,78,0.07,,,0.40,,2013-03-08 21:52:00,
2013-03-08 17:02:00,39.0,32.0,30.07,North,353,5.0,12.0,75,0.06,,,0.41,,2013-03-08 22:02:00,
2013-03-08 17:11:00,39.0,32.0,30.07,North,353,5.0,12.0,75,0.06,,,0.41,,2013-03-08 22:11:00,
2013-03-08 17:22:00,39.0,32.0,30.06,NE,45,1.0,8.0,75,0.06,,,0.42,,2013-03-08 22:22:00,
2013-03-08 17:32:00,40.0,32.0,30.08,NNW,328,2.0,10.0,74,0.06,,,0.43,,2013-03-08 22:32:00,
2013-03-08 17:42:00,40.0,32.0,30.08,NNW,328,2.0,10.0,74,0.06,,,0.43,,2013-03-08 22:42:00,
2013-03-08 17:52:00,40.0,32.0,30.09,North,3,5.0,14.0,73,0.05,,,0.42,,2013-03-08 22:52:00,
2013-03-08 18:02:00,41.0,32.0,30.10,NNW,343,2.0,7.0,71,0.05,,,0.43,,2013-03-08 23:02:00,
2013-03-08 18:12:00,41.0,32.0,30.10,NNW,343,2.0,7.0,71,0.05,,,0.43,,2013-03-08 23:12:00,
2013-03-08 18:22:00,41.0,32.0,30.11,NNW,330,2.0,12.0,70,0.04,,,0.43,,2013-03-08 23:22:00,
2013-03-08 18:32:00,41.0,32.0,30.11,North,354,2.0,7.0,70,0.03,,,0.43,,2013-03-08 23:32:00,
2013-03-08 18:42:00,41.0,32.0,30.11,North,354,2.0,7.0,70,0.03,,,0.43,,2013-03-08 23:42:00,
2013-03-08 18:52:00,41.0,32.0,30.12,NNE,12,2.0,8.0,69,0.04,,,0.44,,2013-03-08 23:52:00,
2013-03-08 19:02:00,41.0,32.0,30.13,North,8,3.0,13.0,69,0.03,,,0.45,,2013-03-09 00:02:00,
2013-03-08 19:12:00,41.0,32.0,30.13,North,8,3.0,13.0,69,0.03,,,0.45,,2013-03-09 00:12:00,
2013-03-08 19:22:00,41.0,31.0,30.13,NNW,343,4.0,14.0,68,0.04,,,0.45,,2013-03-09 00:22:00,
2013-03-08 19:32:00,42.0,32.0,30.14,NNE,30,3.0,9.0,68,0.04,,,0.46,,2013-03-09 00:32:00,
2013-03-08 19:42:00,42.0,32.0,30.14,NNE,30,3.0,9.0,68,0.04,,,0.46,,2013-03-09 00:42:00,
2013-03-08 19:52:00,42.0,32.0,30.14,NNW,345,3.0,8.0,68,0.04,,,0.47,,2013-03-09 00:52:00,
2013-03-08 20:02:00,42.0,32.0,30.15,North,10,3.0,9.0,68,0.04,,,0.47,,2013-03-09 01:02:00,
2013-03-08 20:12:00,42.0,32.0,30.16,NNW,339,2.0,10.0,68,0.03,,,0.47,,2013-03-09 01:12:00,
2013-03-08 20:22:00,42.0,32.0,30.16,NNW,339,2.0,10.0,68,0.03,,,0.47,,2013-03-09 01:22:00,
2013-03-08 20:32:00,42.0,32.0,30.16,NE,38,2.0,12.0,67,0.03,,,0.48,,2013-03-09 01:32:00,
2013-03-08 20:42:00,42.0,32.0,30.16,NE,38,2.0,12.0,67,0.03,,,0.48,,2013-03-09 01:42:00,
2013-03-08 20:51:00,42.0,32.0,30.16,NNE,31,2.0,9.0,67,0.02,,,0.47,,2013-03-09 01:51:00,
2013-03-08 21:01:00,42.0,31.0,30.17,NNE,14,3.0,14.0,66,0.02,,,0.48,,2013-03-09 02:01:00,
2013-03-08 21:11:00,42.0,31.0,30.17,NNE,14,3.0,14.0,66,0.02,,,0.48,,2013-03-09 02:11:00,
2013-03-08 21:21:00,42.0,31.0,30.17,North,358,5.0,13.0,65,0.03,,,0.48,,2013-03-09 02:21:00,
2013-03-08 21:31:00,42.0,31.0,30.17,North,8,1.0,8.0,65,0.02,,,0.48,,2013-03-09 02:31:00,
2013-03-08 21:41:00,42.0,31.0,30.17,WSW,246,3.0,8.0,64,0.02,,,0.47,,2013-03-09 02:41:00,
2013-03-08 21:51:00,42.0,31.0,30.17,WSW,246,3.0,8.0,64,0.02,,,0.47,,2013-03-09 02:51:00,
2013-03-08 22:01:00,42.0,30.0,30.17,North,0,4.0,8.0,63,0.02,,,0.48,,2013-03-09 03:01:00,
2013-03-08 22:11:00,42.0,30.0,30.17,North,0,4.0,8.0,63,0.02,,,0.48,,2013-03-09 03:11:00,
2013-03-08 22:22:00,42.0,31.0,30.17,NE,35,2.0,6.0,64,0.01,,,0.47,,2013-03-09 03:22:00,
2013-03-08 22:31:00,41.0,29.0,30.17,NNE,18,3.0,6.0,63,0.01,,,0.47,,2013-03-09 03:31:00,
2013-03-08 22:41:00,41.0,29.0,30.17,NNE,18,3.0,6.0,63,0.01,,,0.47,,2013-03-09 03:41:00,
2013-03-08 22:52:00,41.0,29.0,30.17,NE,43,1.0,8.0,63,0.01,,,0.47,,2013-03-09 03:52:00,
2013-03-08 23:01:00,41.0,29.0,30.18,NNW,348,4.0,10.0,61,0.01,,,0.47,,2013-03-09 04:01:00,
2013-03-08 23:11:00,41.0,29.0,30.18,NNW,348,4.0,10.0,61,0.01,,,0.47,,2013-03-09 04:11:00,
2013-03-08 23:22:00,41.0,28.0,30.18,NNE,16,3.0,16.0,60,0.01,,,0.47,,2013-03-09 04:22:00,
2013-03-08 23:32:00,41.0,28.0,30.18,NNE,22,3.0,7.0,60,0.01,,,0.47,,2013-03-09 04:32:00,
2013-03-08 23:42:00,41.0,28.0,30.18,NNE,22,3.0,7.0,60,0.01,,,0.47,,2013-03-09 04:42:00,
2013-03-08 23:51:00,41.0,29.0,30.18,NNW,345,2.0,12.0,61,0.01,,,0.47,,2013-03-09 04:51:00,